Tok, AK

5:35 PM AKST on February 24, 2017 (GMT -0900)
Eagle

Weather History for PAEG - September, 2012

Change the Weather History Date:

Wednesday, September 26, 2012

  Actual Average (PABN) Record (PABN)
Temperature  
Mean Temperature 49 °F -  
Max Temperature 57 °F 38 °F 55 °F (2002)
Min Temperature 41 °F 26 °F 17 °F (1999)
Degree Days  
Heating Degree Days 16    
Moisture  
Dew Point 37 °F    
Average Humidity 68    
Maximum Humidity 96    
Minimum Humidity 41    
Precipitation  
Precipitation 0.00 in - - ()
Sea Level Pressure  
Sea Level Pressure 29.39 in    
Wind  
Wind Speed 3 mph (SE)    
Max Wind Speed 13 mph    
Max Gust Speed 23 mph    
Visibility 10 miles    
Events Rain    
Averages and records for this station are not official NWS values.
T = Trace of Precipitation, MM = Missing Value Source: NWS Daily Summary

Daily Weather History Graph

Daily Weather History Graph

Search for Another Location

Airport or City:

Trip Planner

Search our weather history database for the weather conditions in past years. The results will help you decide how hot, cold, wet, or windy it might be!

Date:

Astronomy

Sep. 26, 2012 Rise Set
Actual Time 7:21 AM AKDT 7:08 PM AKDT
Civil Twilight 6:32 AM AKDT 7:56 PM AKDT
Nautical Twilight 5:33 AM AKDT 8:55 PM AKDT
Astronomical Twilight 4:27 AM AKDT 10:00 PM AKDT
Moon 5:58 PM AKDT (9/26) 2:54 AM AKDT (9/26)
Length of Visible Light 13h 24m
Length of Day
11h 47m
Waxing Gibbous, 89% of the Moon is Illuminated
Sep 26
Waxing Gibbous
Sep 29
Full
Oct 7
Last Quarter
Oct 15
New
Oct 21
First Quarter

Hourly Weather History & Observations

Time (AKDT) Temp. Windchill Dew Point Humidity Pressure Visibility Wind Dir Wind Speed Gust Speed Precip Events Conditions
12:53 AM 41.0 °F - 30.9 °F 67% 29.45 in 10.0 mi Calm Calm - N/A   Overcast
1:53 AM 48.9 °F - 39.0 °F 69% 29.46 in 10.0 mi South 5.8 mph - 0.00 in Rain Light Rain
2:53 AM 44.1 °F - 39.9 °F 85% 29.45 in 10.0 mi Calm Calm - 0.00 in   Overcast
3:53 AM 42.1 °F - 39.9 °F 92% 29.44 in 10.0 mi Calm Calm - 0.00 in Rain Light Rain
4:53 AM 41.0 °F - 39.9 °F 96% 29.44 in 10.0 mi Calm Calm - 0.00 in Rain Light Rain
5:53 AM 42.1 °F - 39.9 °F 92% 29.45 in 10.0 mi Calm Calm - 0.00 in Rain Light Rain
6:53 AM 42.1 °F - 41.0 °F 96% 29.44 in 10.0 mi Calm Calm - 0.00 in Rain Light Rain
7:53 AM 42.1 °F - 41.0 °F 96% 29.45 in 10.0 mi Calm Calm - 0.00 in   Overcast
8:53 AM 45.0 °F 41.2 °F 41.0 °F 86% 29.46 in 10.0 mi SE 6.9 mph - N/A   Overcast
9:53 AM 46.0 °F - 43.0 °F 89% 29.46 in 10.0 mi Calm Calm - 0.00 in   Overcast
10:53 AM 46.9 °F - 42.1 °F 83% 29.46 in 10.0 mi SE 6.9 mph - N/A   Scattered Clouds
11:53 AM 48.9 °F - 41.0 °F 74% 29.46 in 10.0 mi SE 8.1 mph - N/A   Clear
12:53 PM 53.1 °F - 41.0 °F 64% 29.44 in 10.0 mi SE 12.7 mph 23.0 mph N/A   Clear
1:53 PM 55.9 °F - 39.0 °F 53% 29.42 in 10.0 mi SE 8.1 mph 17.3 mph N/A   Clear
2:53 PM 57.9 °F - 37.9 °F 47% 29.41 in 10.0 mi SSE 6.9 mph - N/A   Clear
3:53 PM 57.0 °F - 37.0 °F 47% 29.38 in 10.0 mi SSE 9.2 mph 19.6 mph N/A   Clear
4:53 PM 57.0 °F - 37.0 °F 47% 29.36 in 10.0 mi SE 9.2 mph - N/A   Partly Cloudy
5:53 PM 55.0 °F - 36.0 °F 49% 29.34 in 10.0 mi Variable 4.6 mph - N/A   Clear
6:53 PM 55.0 °F - 34.0 °F 45% 29.32 in 10.0 mi SE 9.2 mph - N/A   Mostly Cloudy
7:53 PM 48.9 °F - 35.1 °F 59% 29.29 in 10.0 mi ESE 5.8 mph - N/A   Clear
8:53 PM 41.0 °F 39.0 °F 33.1 °F 73% 29.28 in 10.0 mi East 3.5 mph - N/A   Clear
9:53 PM 50.0 °F - 27.0 °F 41% 29.24 in 10.0 mi Variable 4.6 mph - N/A   Clear
10:53 PM 48.9 °F - 27.0 °F 43% 29.21 in 10.0 mi ESE 4.6 mph - N/A   Clear
11:53 PM 48.0 °F - 28.0 °F 46% 29.17 in 10.0 mi East 3.5 mph - N/A   Partly Cloudy